Regional Weather Roundup
Issued by NWS

Home | Current Version | Previous Version | Graphics & Text | Print | Product List | Glossary On
Versions: 1 2 3 4 5 6 7 8 9 10 11 12 13 14 15 16 17 18 19 20 21 22 23 24 25 26 27 28 29 30 31 32 33 34 35 36 37 38 39 40 41 42 43 44 45 46 47 48 49 50
023
ASUS44 KLIX 192111
RWRLA
LOUISIANA WEATHER ROUNDUP
NATIONAL WEATHER SERVICE NEW ORLEANS LA
400 PM CDT SUN APR 19 2015

NOTE: "FAIR" INDICATES FEW OR NO CLOUDS BELOW 12,000 FEET WITH NO
      SIGNIFICANT WEATHER AND/OR OBSTRUCTIONS TO VISIBILITY.
      SKY/WX - SKY CONDITION AND SIGNIFICANT WEATHER.
      TMP - AIR TEMPERATURE.    DP   - DEWPOINT TEMPERATURE.
      RH  - RELATIVE HUMIDITY.  PRES - PRESSURE.
      HX  - HEAT INDEX.         WCI  - WIND CHILL INDEX.

*  THESE STATIONS ARE NOT NWS OR FAA STATIONS AND ARE NOT UNDER
   NWS QUALITY CONTROL.

LAZ040-048-061>063-065-066-069-192200-
SOUTHEAST LOUISIANA

CITY           SKY/WX    TMP DP  RH WIND       PRES   REMARKS
N.O. AUDUBON     N/A     87  66  50 MISG        N/A
N.O. INTL ARPT MOSUNNY   84  61  45 W13       29.77F
N.O. LAKEFRONT SUNNY     84  64  50 NW8       29.78F
SLIDELL        SUNNY     84  61  45 SW8       29.76F
BATON ROUGE    MOSUNNY   83  63  50 S10G30    29.76F
BOOTHVILLE     SUNNY     80  69  69 SW12      29.80F
BELLE CHASSE   MOSUNNY   84  58  40 VRB7G17   29.77F
BOGALUSA*        N/A     86  54  32 W10G16    29.77F
GALLIANO*      CLEAR     83  68  60 MISG      29.80S
NEW ROADS*     FAIR      82  64  53 SW8       29.76F
GONZALES*      FAIR      83  62  48 S9        29.76F
HAMMOND*       SUNNY     84  55  37 W8        29.78F
HOUMA*         SUNNY     82  61  47 W12       29.79F
PORT FOURCHON* CLEAR     79  68  69 SW15      29.84S

$$

LAZ041-044-053-054-192200-
SOUTHWEST LOUISIANA

CITY           SKY/WX    TMP DP  RH WIND       PRES   REMARKS
LAKE CHARLES   SUNNY     79  64  60 S10       29.76F
LAFAYETTE      SUNNY     83  62  49 S13       29.77F
PATTERSON      SUNNY     81  61  50 W14       29.80F
SALT POINT       N/A     78  69  73 VRB6      29.79F
NEW IBERIA     SUNNY     81  68  64 S12       29.79F
CHENAULT AIRPK NOT AVBL

$$

LAZ027-028-192200-
CENTRAL LOUISIANA

CITY           SKY/WX    TMP DP  RH WIND       PRES   REMARKS
FORT POLK      PTSUNNY   81  65  57 S13       29.72F HAZE
ALEXANDRIA INT MOSUNNY   81  67  62 SW8       29.71F
ALEXANDRIA     MOSUNNY   82  65  56 SW10      29.73F

$$

LAZ001-002-192200-
NORTHWEST LOUISIANA

CITY           SKY/WX    TMP DP  RH WIND       PRES   REMARKS
SHREVEPORT     MOSUNNY   80  66  62 S12       29.68F
BARKSDALE AFB  MOSUNNY   80  64  58 S13       29.68F
DTN SHREVEPORT MOSUNNY   80  63  55 SW16G24   29.68F

$$

LAZ014-016-192200-
NORTHEAST LOUISIANA

CITY           SKY/WX    TMP DP  RH WIND       PRES   REMARKS
MONROE         MOSUNNY   81  65  58 SW12      29.69F
TALLULAH       SUNNY     79  63  57 VRB6      29.72F

$$




USA.gov is the U.S. government's official web portal to all federal, state and local government web resources and services.